TimeWEST,TemperatureF,Dew PointF,Humidity,Sea Level PressureIn,VisibilityMPH,Wind Direction,Wind SpeedMPH,Gust SpeedMPH,PrecipitationIn,Events,Conditions,WindDirDegrees,DateUTC
12:00 AM,59.0,50.0,72,30.21,-9999.0,South,9.2,-,N/A,,Clear,190,2013-10-13 23:00:00
1:00 AM,56,49,69,30.20,6,South,4.6,,,,,190,2013-10-14 00:00:00
1:00 AM,55.4,48.2,77,30.18,-9999.0,South,4.6,-,N/A,,Clear,190,2013-10-14 00:00:00
2:00 AM,51.8,46.4,82,30.15,-9999.0,SSE,3.5,-,N/A,,Clear,160,2013-10-14 01:00:00
3:00 AM,53.6,48.2,82,30.15,-9999.0,South,5.8,-,N/A,,Clear,180,2013-10-14 02:00:00
4:00 AM,51,46,77,30.17,6,SSE,4.6,,,,,160,2013-10-14 03:00:00
4:00 AM,51.8,46.4,82,30.15,-9999.0,SSE,4.6,-,N/A,,Clear,160,2013-10-14 03:00:00
5:00 AM,53.6,48.2,82,30.15,-9999.0,South,8.1,-,N/A,,Clear,180,2013-10-14 04:00:00
6:00 AM,53.6,48.2,82,30.15,-9999.0,South,9.2,-,N/A,,Clear,180,2013-10-14 05:00:00
7:00 AM,52,47,79,30.19,6,SSE,4.6,,,,,160,2013-10-14 06:00:00
8:00 AM,53.6,48.2,82,30.18,-9999.0,South,9.2,-,N/A,,Clear,180,2013-10-14 07:00:00
9:00 AM,60.8,51.8,72,30.18,-9999.0,Calm,Calm,-,N/A,,Clear,0,2013-10-14 08:00:00
10:00 AM,65,53,56,30.16,6,North,4.6,,,,Clear,350,2013-10-14 09:00:00
10:00 AM,64.4,53.6,68,30.21,-9999.0,NNW,4.6,-,N/A,,Clear,340,2013-10-14 09:00:00
11:00 AM,68.0,51.8,56,30.21,-9999.0,NNW,4.6,-,N/A,,Clear,340,2013-10-14 10:00:00
12:00 PM,71.6,51.8,50,30.18,6.2,NNW,4.6,-,N/A,,Partly Cloudy,340,2013-10-14 11:00:00
1:00 PM,74,52,35,30.10,6,NW,4.6,,,,Clear,320,2013-10-14 12:00:00
1:00 PM,73.4,53.6,50,30.18,6.2,NW,4.6,-,N/A,,Scattered Clouds,320,2013-10-14 12:00:00
2:00 PM,75.2,50.0,41,30.15,-9999.0,WNW,4.6,-,N/A,,Clear,300,2013-10-14 13:00:00
3:00 PM,75.2,51.8,44,30.15,-9999.0,NW,4.6,-,N/A,,Clear,320,2013-10-14 14:00:00
4:00 PM,77,51,29,30.05,6,WNW,4.6,,,,Clear,290,2013-10-14 15:00:00
4:00 PM,77.0,51.8,41,30.15,-9999.0,WNW,4.6,-,N/A,,Clear,290,2013-10-14 15:00:00
5:00 PM,75.2,48.2,38,30.15,-9999.0,WNW,5.8,-,N/A,,Clear,300,2013-10-14 16:00:00
6:00 PM,73.4,50.0,44,30.15,-9999.0,West,4.6,-,N/A,,Clear,280,2013-10-14 17:00:00
7:00 PM,69,49,38,30.11,6,West,3.5,,,,Scattered Clouds,280,2013-10-14 18:00:00
7:00 PM,69.8,48.2,46,30.18,-9999.0,West,3.5,-,N/A,,Clear,280,2013-10-14 18:00:00
8:00 PM,66.2,48.2,52,30.18,-9999.0,South,2.3,-,N/A,,Clear,190,2013-10-14 19:00:00
9:00 PM,62.6,46.4,55,30.21,-9999.0,SSE,4.6,-,N/A,,Unknown,160,2013-10-14 20:00:00
10:00 PM,64,49,47,30.19,6,WSW,4.6,,,,Clear,250,2013-10-14 21:00:00
10:00 PM,64.4,48.2,56,30.21,-9999.0,WSW,4.6,-,N/A,,Clear,250,2013-10-14 21:00:00
11:00 PM,66.2,48.2,52,30.24,-9999.0,South,4.6,-,N/A,,Clear,180,2013-10-14 22:00:00